Tracking 28799 objects as of 18-Apr-2024
HD Live streaming from Space Station
objects crossing your sky now

ARIANE 5 R/B

Track ARIANE 5 R/B now!


NORAD ID: 39618
Int'l Code: 2014-011C
Perigee: 282.3 km
Apogee: 32,754.8 km
Inclination: 2.9 °
Period: 574.4 minutes
Semi major axis: 22889 km
RCS: Unknown
Launch date: March 22, 2014
Source: France (FR)
Launch site: FRENCH GUIANA (FRGUI)

Note: This is a ROCKET BODY
Your satellite tracking list
Your tracking list is empty




NASA's NSSDC Master Catalog

Two Line Element Set (TLE):
1 39618U 14011C   24108.42124551  .00002365  00000-0  99249-3 0  9995
2 39618   2.8999 140.6348 7093319 178.6269 186.0580  2.50695821 87868
Source of the keplerian elements: AFSPC